Theta_e
279 279 279 279 279 279 278 277 276 276 276 276 276 275 275 275 275 275 274 274 273 273 273 273 272 272 272 272 272 272 271 271 272 272 272 272 273 273 273 273 274 274 274 274 274 274 275 275 275 276 276 276 275 276 276 276 276 275 275 276 276 276
279 279 279 278 278 277 276 276 275 275 275 276 274 274 274 274 273 274 273 273 273 272 272 272 272 272 272 271 271 271 271 271 271 271 271 272 272 272 273 272 272 272 272 273 273 273 274 274 274 275 275 275 275 275 275 275 275 275 274 274 275 275
279 279 278 278 277 276 275 275 275 274 274 274 275 274 273 273 273 272 272 272 272 272 271 271 271 271 271 271 271 270 270 271 271 271 271 272 271 272 271 271 271 272 272 272 272 273 273 273 273 274 275 274 274 274 274 274 274 274 273 273 273 274
278 277 277 276 275 275 274 275 274 273 273 273 273 273 272 272 272 272 272 272 271 271 271 271 271 271 270 270 270 270 270 270 270 271 271 270 271 271 270 270 271 271 272 271 272 272 272 272 273 273 273 273 272 272 273 273 273 273 272 272 272 272
277 277 276 275 275 275 274 274 274 274 273 272 272 272 272 272 272 272 271 271 271 270 270 270 270 270 270 269 269 269 270 270 270 270 270 269 270 270 270 270 271 271 271 271 271 271 271 271 271 272 271 271 271 271 271 272 272 271 271 271 271 271
276 276 275 274 274 274 274 274 274 273 272 272 272 271 271 271 271 271 271 270 270 270 270 269 269 269 269 269 269 269 269 269 269 269 269 269 269 269 270 270 270 270 270 269 269 269 269 269 270 270 270 269 269 269 269 270 270 270 270 270 270 271
275 276 276 275 275 274 274 273 273 272 272 271 271 271 271 270 271 270 270 269 269 269 269 269 269 268 268 268 269 268 269 269 269 269 268 269 269 269 269 269 269 268 268 267 267 267 267 267 268 268 268 268 268 268 268 268 268 269 269 270 270 271
276 276 276 275 275 274 274 273 273 272 271 271 271 270 270 270 270 270 269 269 268 268 268 268 268 268 268 268 268 268 268 268 268 268 268 268 267 267 267 267 266 266 266 266 266 266 266 266 266 266 266 267 267 267 267 267 267 268 268 269 269 269
275 276 275 275 275 274 274 273 272 271 271 270 270 269 269 269 269 269 268 268 268 267 268 268 267 268 267 268 267 267 267 267 267 266 266 266 265 265 265 265 265 265 265 265 265 265 265 265 265 265 265 266 266 266 266 266 266 267 267 268 268 269
276 275 275 274 274 274 273 273 272 271 270 269 269 269 268 269 268 268 267 267 267 267 267 267 267 267 267 267 267 266 266 266 265 265 265 264 264 263 263 263 263 263 264 264 264 264 264 264 264 265 265 265 266 266 266 266 266 267 267 268 268 269
275 275 275 274 274 273 272 271 270 270 269 269 269 268 268 268 267 267 267 266 266 267 267 267 267 267 267 266 265 265 264 264 263 263 263 263 262 263 263 263 263 263 263 263 263 264 264 264 264 265 265 265 266 266 267 267 268 268 268 268 269 269
276 275 275 274 273 273 271 270 269 269 268 268 268 267 267 267 267 266 266 266 266 266 267 266 266 266 265 265 264 263 263 262 262 261 261 261 262 262 262 262 262 262 262 262 263 263 264 264 265 267 270 271 269 268 269 269 269 269 270 270 270 269
276 275 274 274 273 273 271 270 269 268 268 268 267 267 267 267 266 266 265 266 266 266 266 266 265 265 264 263 263 262 261 261 260 260 260 260 261 261 261 262 262 262 263 263 263 263 264 264 265 269 271 273 273 271 269 269 269 270 270 270 270 271
275 275 274 274 274 272 271 270 268 268 267 267 267 266 266 266 265 265 265 265 265 265 265 265 264 263 262 262 261 261 260 260 259 259 260 260 260 261 261 261 262 263 263 263 264 263 264 264 268 270 271 272 273 273 270 269 269 270 271 271 271 272
276 275 275 275 273 272 271 270 268 267 267 266 266 266 265 265 265 265 265 265 265 264 264 263 262 262 261 261 260 259 259 259 259 259 259 259 260 261 261 262 262 262 263 263 263 263 263 264 268 270 271 272 273 274 273 270 270 270 271 272 272 272
276 276 276 275 274 273 271 270 269 268 267 267 266 265 265 264 265 264 264 264 264 264 263 262 261 260 260 260 259 259 259 258 258 259 260 260 260 261 261 261 262 262 262 262 262 263 263 263 267 270 271 272 273 274 273 270 271 271 271 272 272 273
276 276 275 274 272 271 269 268 268 267 266 265 265 265 264 264 265 264 264 264 263 262 261 261 260 259 259 259 258 258 258 258 258 259 260 260 260 260 260 261 261 261 261 262 262 262 262 263 268 270 272 272 273 274 274 271 271 271 271 272 273 273
276 275 275 274 270 269 268 267 267 266 265 265 265 265 264 264 264 264 264 263 262 261 261 260 259 259 258 258 258 257 258 258 258 258 259 260 260 261 261 261 261 261 261 261 261 261 261 262 269 270 271 273 274 275 271 270 270 270 271 272 273 273
277 276 273 270 268 268 268 267 266 266 265 264 264 264 264 264 263 263 262 261 261 260 260 260 259 257 257 257 257 257 257 258 258 258 260 259 260 260 260 260 260 261 261 261 261 261 261 262 266 270 272 273 274 272 269 270 270 270 270 270 271 272
275 272 269 268 268 268 267 266 265 265 264 264 264 264 264 263 263 262 261 261 261 260 259 259 258 257 257 256 256 256 257 258 258 259 259 259 259 259 260 260 260 261 261 261 261 261 261 262 266 270 271 272 273 273 270 270 269 269 269 270 271 272
271 269 269 268 267 267 266 265 265 264 264 264 264 264 263 263 262 261 260 260 260 259 258 258 257 257 256 256 256 256 256 257 258 258 259 259 259 259 260 260 260 260 261 261 261 264 264 263 265 269 271 272 273 272 270 269 269 268 269 269 270 271
269 268 268 267 266 266 265 265 265 264 264 264 263 262 262 262 261 261 260 260 259 258 258 257 256 256 255 256 256 256 257 258 258 258 259 259 259 259 259 260 260 259 260 262 262 263 264 264 264 266 271 273 273 274 270 270 268 268 268 269 269 270
269 268 267 267 265 265 265 265 264 264 263 263 262 262 262 261 261 260 259 259 258 257 257 256 256 255 255 256 256 257 257 258 258 258 258 258 258 258 259 259 260 261 262 264 264 264 264 265 266 267 272 272 273 274 273 269 269 269 269 269 269 270
268 267 266 265 264 264 264 265 264 263 262 262 262 262 261 260 259 258 257 257 257 256 255 254 255 255 255 256 256 256 256 257 257 257 257 258 258 257 258 259 261 263 264 264 265 265 265 267 269 267 270 272 273 274 274 271 270 271 270 270 270 270
267 266 265 264 264 264 265 264 263 262 262 262 261 260 260 259 258 257 257 256 255 254 254 254 254 255 255 255 256 256 256 256 256 256 257 257 257 257 258 261 262 263 264 264 265 266 266 266 267 270 269 272 273 274 275 275 273 275 272 270 269 270
265 264 263 263 263 264 264 263 262 261 261 261 260 259 258 257 257 256 255 255 254 254 254 254 254 255 255 254 255 255 255 255 256 256 256 257 257 258 259 261 262 263 263 263 264 265 266 267 267 269 271 271 273 274 275 275 275 275 272 271 270 270
264 263 262 263 263 263 263 263 262 261 261 260 259 258 257 256 255 254 253 253 253 253 253 253 254 254 253 254 254 254 255 255 255 255 256 256 257 259 260 261 262 263 263 263 264 264 265 266 267 267 269 273 273 274 274 275 275 275 275 270 270 271
263 262 261 261 261 261 262 262 262 260 260 259 259 258 257 255 253 253 252 252 253 253 252 253 253 254 254 254 254 254 254 254 255 255 256 257 259 260 260 260 262 263 263 263 264 264 265 266 267 267 268 269 271 272 273 273 274 273 273 273 271 274
261 261 260 259 260 260 260 260 261 260 259 258 257 257 255 253 253 253 252 252 252 253 252 253 254 254 254 253 253 254 254 255 255 255 257 259 259 259 260 262 263 263 263 263 264 264 265 265 266 267 268 269 269 269 269 270 269 272 272 270 270 271
262 260 260 259 259 259 259 259 259 258 257 257 256 255 254 253 253 253 252 252 252 252 252 252 254 253 253 252 252 253 253 254 255 256 258 259 260 259 261 263 263 263 263 263 264 264 264 265 266 267 268 269 269 269 269 269 268 268 269 269 269 269
261 260 260 259 259 259 258 257 257 257 257 256 254 253 253 253 253 252 252 252 252 253 252 251 251 252 252 252 251 253 254 253 254 257 259 262 263 264 264 264 264 264 265 265 265 264 264 266 266 267 272 270 272 269 268 267 268 268 269 270 272 267
261 260 259 259 258 257 257 256 256 256 256 255 254 253 253 252 252 252 252 252 252 252 251 250 251 251 251 251 251 252 252 256 261 262 261 262 266 268 269 268 265 265 266 265 266 266 266 266 267 273 273 273 273 272 272 271 271 272 271 271 271 267
261 260 259 258 257 257 256 255 255 255 255 254 254 253 253 253 252 251 251 251 251 253 251 251 251 251 251 251 251 251 251 252 254 260 264 266 266 267 268 268 269 269 270 267 265 267 272 272 272 273 272 272 272 272 271 270 270 271 272 271 266 263
260 259 258 257 257 256 256 255 255 254 254 254 253 253 252 253 253 251 251 251 251 253 252 252 252 251 251 250 251 250 251 250 250 252 260 265 264 266 267 267 268 268 269 270 269 268 267 269 271 272 271 271 271 271 270 269 268 270 271 270 268 261
260 259 258 257 256 255 255 254 254 254 254 253 253 252 252 252 252 251 250 251 252 252 252 251 251 251 250 249 249 249 249 250 249 249 250 254 262 264 264 265 266 267 268 269 269 270 270 270 270 271 270 270 270 270 269 268 267 268 269 268 262 260
260 259 257 256 256 255 254 254 253 253 253 252 252 252 251 251 251 251 250 251 252 251 251 251 250 250 249 249 250 249 250 249 249 249 249 249 250 252 257 262 263 265 266 267 268 269 270 270 269 270 269 270 269 269 268 266 261 266 267 265 260 260
259 257 257 256 255 255 254 254 253 253 252 251 251 250 250 251 251 251 253 253 252 251 250 250 251 250 249 248 248 249 250 249 250 250 250 249 249 249 250 251 253 258 263 263 264 267 269 269 268 268 268 268 268 268 267 263 256 255 255 257 259 260
258 257 256 255 255 255 254 253 253 252 251 250 250 251 251 251 252 252 253 253 252 251 251 249 248 249 248 248 249 250 251 251 251 249 249 249 249 249 249 250 251 252 258 264 264 267 268 268 267 267 267 267 267 267 264 255 254 254 254 255 257 258
Wind_Speed
15 16 17 15 14 13 13 12 12 11 10 9 10 11 9 9 6 5 4 4 3 4 4 4 4 4 4 5 6 6 7 8 7 8 9 9 10 10 10 11 12 12 12 12 13 13 13 13 14 14 15 15 15 16 15 16 16 15 18 16 15 16
15 16 16 17 17 15 13 14 11 13 11 11 9 8 7 7 6 5 5 4 4 4 4 4 4 4 5 5 6 6 7 8 8 9 9 10 9 10 11 11 12 13 13 12 13 15 14 14 14 14 14 14 14 14 15 15 15 18 18 18 17 17
13 12 10 10 9 9 11 13 14 12 11 12 10 12 9 7 6 5 4 4 4 4 4 4 4 5 5 6 6 8 8 8 8 8 9 10 10 10 12 12 13 13 13 14 13 13 13 14 14 13 13 14 15 16 14 17 17 18 19 17 19 20
10 8 8 9 11 11 13 12 12 13 13 12 11 9 7 7 6 5 4 4 4 4 4 4 4 4 5 6 7 8 8 8 8 9 9 11 11 11 12 13 12 11 13 13 14 14 14 15 15 15 14 16 16 15 13 14 17 17 19 20 20 20
10 11 12 13 13 13 13 13 13 13 12 11 9 9 7 6 5 4 4 3 4 4 4 4 4 4 6 6 7 8 8 8 9 9 10 11 11 11 11 12 12 13 13 14 14 14 15 15 15 14 15 16 16 17 16 16 17 18 18 19 20 19
9 10 13 14 12 13 15 13 11 11 11 10 8 8 7 6 5 4 3 3 4 4 4 4 4 5 5 6 7 8 8 8 9 9 10 11 10 12 11 12 13 13 13 14 14 14 14 15 15 15 15 16 16 17 18 18 18 18 18 19 20 19
13 13 12 13 11 10 12 13 13 12 10 8 8 7 6 5 5 4 4 4 4 3 3 4 3 4 6 7 7 8 8 8 9 8 10 10 11 11 11 11 11 13 13 13 14 15 15 15 16 16 16 16 15 17 17 18 18 18 18 19 20 19
12 11 12 10 11 11 12 12 12 11 9 8 7 8 7 6 5 5 4 4 4 3 3 3 3 5 6 7 7 7 8 8 8 9 9 9 10 11 10 12 11 11 14 14 14 15 15 15 15 16 17 17 16 16 17 17 17 18 18 18 18 18
14 14 14 12 10 11 9 12 12 10 10 9 7 7 6 6 6 5 4 4 4 3 2 3 4 5 6 6 6 6 7 8 9 9 9 9 10 10 11 11 12 12 13 14 15 15 15 16 15 15 16 16 17 17 17 17 17 18 17 17 18 18
12 14 15 13 12 11 11 11 11 11 10 10 8 7 6 5 6 5 5 4 3 3 3 3 4 5 5 5 5 6 7 7 7 8 8 9 9 10 11 12 13 13 13 14 14 15 16 17 16 16 15 16 16 16 16 16 17 17 17 18 19 18
15 15 14 12 12 14 13 12 10 9 8 8 7 6 7 6 6 5 4 4 3 3 3 3 4 4 4 4 5 6 7 7 7 7 7 7 8 8 10 12 14 15 15 14 15 17 16 15 15 13 13 15 16 16 17 17 17 17 18 19 19 18
14 15 15 13 14 15 14 11 11 10 10 8 7 7 6 6 5 5 4 4 3 3 3 3 4 4 3 4 5 6 6 7 7 7 7 7 8 8 10 11 12 13 14 15 16 15 14 13 12 15 24 23 19 19 18 17 17 17 17 17 18 18
14 14 16 16 15 15 13 11 11 10 9 8 7 7 7 6 5 5 4 4 4 3 3 3 3 3 4 4 5 5 6 6 6 6 7 7 7 8 9 10 12 13 14 15 15 15 14 13 13 24 26 27 29 22 19 18 18 18 18 18 18 19
16 18 20 19 16 13 12 12 12 11 10 8 8 7 7 6 5 5 5 4 4 4 3 3 2 3 4 4 5 5 5 6 5 6 6 7 8 8 8 10 12 13 14 13 14 15 15 15 20 26 27 28 28 26 20 18 17 17 17 17 18 17
20 21 19 16 15 13 13 12 13 13 11 9 8 7 6 6 5 5 5 4 4 3 2 2 2 3 4 5 5 5 5 5 5 5 6 7 7 8 9 11 12 12 13 14 16 16 15 16 22 27 29 29 29 29 25 17 17 17 17 18 18 19
13 15 17 18 15 12 10 14 17 12 9 8 8 7 6 6 6 5 5 4 3 3 1 1 1 3 4 5 5 5 4 4 5 6 6 7 8 9 10 11 12 13 14 14 15 16 16 17 22 28 29 29 30 29 25 18 17 17 17 18 18 18
15 14 15 14 15 14 13 12 11 11 9 8 8 6 6 5 5 5 4 4 3 1 0 1 2 3 5 5 5 4 4 4 5 6 6 7 9 10 10 11 12 11 11 13 14 14 15 14 27 29 30 29 29 29 25 16 15 15 15 17 18 19
20 22 21 15 16 15 15 14 10 10 9 8 7 7 6 5 5 4 4 3 2 1 1 1 2 4 5 5 4 4 5 5 6 7 7 7 8 8 9 9 9 11 12 12 13 13 15 15 27 28 28 30 29 30 17 14 15 15 16 16 17 17
18 16 15 16 16 14 13 11 11 10 10 9 7 6 6 6 5 5 4 3 2 2 1 1 3 4 5 4 4 5 5 7 7 7 6 8 8 10 9 9 9 10 11 13 12 13 14 13 21 27 30 29 30 23 15 15 14 14 15 16 17 17
12 14 18 16 13 11 11 12 11 11 10 9 8 8 7 6 5 5 4 3 3 2 1 1 3 5 5 4 4 5 5 5 5 6 6 8 10 10 9 9 10 10 10 11 13 12 14 13 20 29 29 29 28 25 18 14 14 15 16 16 16 15
20 19 14 15 15 11 11 12 12 10 10 9 9 7 7 7 5 5 4 3 3 2 0 1 3 4 4 5 4 3 5 6 6 6 6 6 7 9 9 9 10 10 10 11 12 18 19 13 17 25 27 28 28 23 16 16 14 16 16 15 16 15
18 16 18 19 15 12 13 12 10 9 10 9 8 8 7 6 6 5 4 3 3 1 1 3 3 4 4 5 4 3 3 5 5 6 7 7 7 8 9 9 10 13 12 12 11 11 11 13 14 17 26 26 29 30 19 15 15 16 16 15 15 16
17 16 15 11 13 13 11 11 10 10 8 9 8 8 6 6 6 5 4 3 2 1 2 2 3 5 5 3 3 3 3 4 6 7 7 8 7 8 9 12 13 12 11 11 11 10 11 12 15 17 26 27 28 30 25 13 15 14 15 15 17 17
14 15 14 10 11 10 11 11 11 9 10 9 8 7 7 6 6 5 4 3 2 2 2 4 4 5 3 2 2 4 4 4 5 6 7 7 8 11 12 12 11 10 10 8 8 9 11 12 20 17 22 27 29 28 31 18 16 19 17 17 15 16
20 18 14 10 9 10 11 13 13 10 8 8 9 8 7 6 6 5 4 4 2 2 3 3 4 2 1 2 3 4 6 5 6 8 8 8 9 10 12 12 11 12 12 13 13 12 10 9 10 21 21 25 29 31 30 31 25 28 18 16 17 17
19 17 10 10 9 8 10 14 15 10 10 10 9 8 7 7 6 5 4 4 3 4 4 3 2 0 1 3 4 3 5 6 6 6 5 7 8 9 10 10 12 10 11 15 15 12 11 12 14 16 23 25 31 29 30 29 29 29 19 17 15 16
23 16 10 9 10 7 8 7 16 13 12 10 10 9 9 8 6 6 6 5 4 4 3 2 0 1 2 3 4 5 6 7 5 7 6 7 8 8 9 10 10 10 13 14 15 16 16 16 12 9 17 32 27 29 29 29 29 27 28 18 14 17
19 20 16 9 8 8 7 6 11 19 11 11 10 9 9 9 9 7 7 5 3 2 2 2 1 2 4 5 3 2 3 5 5 5 7 6 7 8 9 10 9 12 13 13 15 16 15 14 11 14 13 14 17 23 28 30 27 26 27 25 19 25
20 21 18 14 9 8 7 8 6 8 11 11 10 10 10 10 8 7 6 5 3 1 1 3 2 2 4 5 3 3 2 3 4 5 6 6 7 8 9 9 10 12 11 13 13 14 14 14 14 17 13 9 12 16 17 19 17 23 24 16 13 17
15 15 14 13 11 9 8 7 7 8 9 9 9 10 9 9 7 7 7 6 4 3 2 3 3 4 4 4 4 5 6 4 3 5 6 6 7 7 7 7 8 10 11 12 13 13 12 10 13 15 14 15 16 16 16 15 14 14 12 14 15 14
13 14 13 11 10 9 8 8 8 8 9 9 10 10 10 9 8 7 6 4 4 3 2 2 3 4 4 3 2 2 5 7 6 6 7 8 8 8 8 7 9 10 10 10 11 13 9 11 13 13 22 21 26 23 19 15 13 14 12 18 26 17
18 15 11 10 9 9 9 9 8 8 7 9 9 10 13 10 8 7 6 4 4 3 2 3 3 5 5 5 5 6 5 7 10 8 7 7 14 17 17 15 10 11 11 9 10 12 14 15 16 28 31 30 30 31 31 28 26 26 21 24 28 18
9 12 12 10 10 10 9 9 9 8 7 9 9 9 10 10 8 6 5 5 4 4 3 2 3 4 4 3 3 4 7 9 6 6 8 12 15 17 18 17 18 20 20 15 12 13 22 25 27 29 29 30 30 30 32 32 28 27 27 27 19 12
16 15 15 12 11 10 9 9 10 10 9 8 8 8 9 11 9 10 7 6 3 4 3 3 4 4 4 2 3 4 5 5 10 14 12 11 14 18 17 17 19 20 20 21 20 17 13 21 26 29 29 29 30 30 30 31 30 27 27 26 23 11
13 11 12 12 12 11 10 10 9 9 9 8 7 8 9 9 11 13 9 5 4 3 4 3 4 4 2 1 2 3 2 4 5 7 13 19 22 20 14 15 20 22 21 22 22 24 23 23 24 28 28 29 29 30 29 30 28 28 28 26 17 11
11 12 12 13 13 12 11 10 9 8 9 8 7 7 10 10 11 12 10 7 5 4 3 3 4 3 1 0 1 1 2 2 3 4 4 8 12 16 18 18 20 21 22 21 23 23 25 25 26 26 28 28 29 29 29 27 18 25 30 23 12 13
16 12 12 14 13 11 11 10 9 8 8 9 10 11 11 10 10 9 9 9 6 4 4 4 4 3 1 0 1 1 2 2 3 3 3 4 5 6 8 10 12 16 20 17 17 21 25 26 26 26 26 28 28 29 28 25 16 19 18 17 14 12
12 13 12 11 12 12 11 9 8 8 8 8 10 10 9 8 9 7 6 6 5 4 5 5 4 2 1 1 2 1 1 3 3 4 4 4 4 5 7 8 10 9 12 20 21 24 24 27 25 24 25 26 27 28 27 16 15 14 14 13 14 13
Wind_Direction
201 197 196 191 185 177 165 144 152 148 147 148 150 157 168 169 171 183 194 198 208 217 227 234 242 249 259 266 272 278 276 279 279 282 283 287 286 286 286 287 286 284 282 281 281 283 282 282 278 276 275 270 270 268 268 267 263 261 264 262 263 265
203 197 190 183 181 171 160 150 146 149 149 148 147 142 155 159 169 180 191 201 210 225 237 245 252 263 273 279 285 281 280 283 288 287 287 286 289 287 287 286 286 287 287 286 287 288 287 285 283 279 276 273 269 269 270 267 264 264 262 269 269 266
200 196 184 170 150 143 142 160 157 149 151 153 160 159 169 166 171 175 188 196 217 230 241 255 260 272 276 282 283 283 283 285 287 288 287 292 286 289 290 287 288 289 290 293 291 291 291 289 287 283 278 275 274 272 269 272 267 264 266 266 269 269
190 172 157 148 150 156 162 163 151 154 162 162 153 154 158 158 171 173 183 197 218 226 245 251 264 271 280 288 289 285 284 285 288 290 293 287 288 289 290 293 293 294 297 295 294 292 290 287 287 283 279 278 276 274 275 270 268 264 267 271 266 266
183 176 171 168 168 163 159 161 162 160 158 151 154 151 159 159 164 164 177 200 216 241 248 266 272 281 287 290 287 282 285 290 292 295 292 291 293 296 296 300 299 299 298 296 295 294 293 290 287 284 282 280 280 279 277 272 270 270 270 270 269 268
162 164 169 171 172 171 174 165 157 152 148 146 144 152 150 154 159 169 184 203 229 243 259 263 272 280 282 281 278 281 290 295 295 297 293 295 298 302 300 305 304 302 301 299 296 293 290 289 288 286 284 282 280 279 277 275 272 272 271 270 270 271
176 185 181 177 172 169 167 168 161 151 148 144 148 144 147 147 161 169 190 204 222 237 244 257 271 275 278 278 280 289 295 297 299 298 300 303 304 304 308 308 308 304 302 298 297 295 292 291 291 287 285 284 280 279 278 277 276 274 274 271 269 269
187 181 181 177 179 172 167 162 157 148 143 148 143 140 146 162 165 178 189 200 216 229 240 261 270 272 274 278 284 294 300 301 299 305 306 307 307 310 307 307 305 303 299 296 295 294 293 292 291 288 288 288 283 280 278 278 276 276 274 272 271 271
194 188 182 184 174 173 167 160 153 149 144 144 144 138 154 166 168 181 184 200 209 229 244 255 264 274 276 282 294 303 305 303 307 309 309 311 309 309 307 304 302 298 296 294 294 293 294 294 292 290 288 288 283 281 279 277 276 274 272 271 270 268
185 186 185 176 178 167 161 160 156 153 151 149 149 152 159 169 170 178 187 189 205 216 240 252 263 270 276 289 304 305 303 306 306 310 309 311 311 310 307 304 300 296 294 295 295 298 301 296 293 288 287 285 283 281 279 277 275 272 269 266 263 262
192 187 182 178 167 170 162 156 150 141 136 135 145 158 169 168 167 179 181 188 200 216 233 254 262 267 281 305 309 304 305 306 306 306 305 303 304 305 303 299 297 297 296 294 296 299 298 298 292 290 288 287 284 280 276 275 271 267 266 261 255 252
190 186 180 173 178 169 165 159 157 155 149 150 158 164 169 158 175 172 180 188 201 221 238 254 264 273 309 318 307 303 307 306 306 303 302 305 304 301 293 289 291 290 292 294 299 299 298 294 293 290 291 291 290 288 285 281 279 277 273 271 265 254
189 180 182 184 180 176 166 156 150 148 149 153 160 165 167 163 169 178 177 193 202 220 238 252 268 307 321 312 301 300 303 305 300 300 303 305 303 293 289 292 293 299 304 303 303 305 302 299 295 297 297 297 296 295 292 289 285 279 277 274 272 272
188 185 188 186 181 170 163 159 158 154 155 156 164 161 160 164 172 175 184 194 205 217 226 250 286 323 312 298 295 297 297 291 293 305 310 305 300 296 293 295 301 308 310 306 306 303 301 300 299 300 302 301 299 296 292 289 286 284 281 276 274 269
191 189 187 179 177 172 170 152 151 160 155 159 160 146 158 169 172 175 186 195 199 208 210 260 314 316 293 289 290 289 281 289 306 313 310 304 300 300 304 309 309 307 310 307 306 304 302 300 300 304 304 303 301 299 295 290 287 285 283 281 275 269
189 187 185 180 174 164 145 159 152 149 144 141 143 152 160 167 174 178 192 189 198 189 210 320 351 297 288 287 286 284 295 314 316 310 300 297 305 310 307 310 311 310 309 306 302 300 300 297 298 302 305 306 304 301 297 291 288 284 281 282 279 278
181 173 170 171 165 156 148 144 140 129 132 145 149 156 158 167 167 179 186 184 185 156 85 6 316 292 288 289 287 297 312 317 312 309 310 314 317 316 314 315 313 306 299 296 296 297 295 293 300 305 308 307 306 304 302 296 296 294 292 289 285 281
178 179 179 161 143 146 147 140 138 135 145 144 150 153 163 163 171 176 176 176 164 148 64 6 303 290 287 289 298 310 324 327 320 316 313 312 312 307 308 304 299 297 295 291 292 291 291 290 302 307 308 310 311 310 307 304 295 288 285 286 291 290
177 167 143 137 142 145 145 137 135 136 141 146 151 153 160 164 174 177 170 163 156 128 98 320 294 285 285 294 310 321 329 328 319 315 315 313 312 313 311 301 297 292 289 290 288 288 289 287 296 307 312 314 315 315 306 297 294 298 300 298 295 292
141 137 137 138 143 138 131 135 140 140 142 147 152 158 163 170 176 171 164 159 141 120 104 288 279 276 288 300 305 318 319 310 302 303 313 314 312 310 300 298 291 282 280 284 287 288 290 290 302 310 312 315 314 312 309 308 307 300 297 295 292 291
142 139 129 137 138 142 134 134 138 138 143 151 155 158 162 172 172 165 160 143 123 103 197 258 261 267 281 291 292 312 309 311 311 304 307 300 298 295 295 290 291 286 285 281 280 291 297 292 296 304 312 316 318 318 313 309 301 301 298 297 296 293
125 139 148 150 144 135 137 138 139 138 142 149 150 156 168 169 162 155 128 121 110 117 231 257 250 255 258 272 293 300 299 302 306 311 312 304 300 296 295 290 287 289 291 293 293 292 288 294 296 301 314 322 324 322 317 310 307 301 298 296 296 294
147 148 149 137 134 139 139 139 136 141 142 144 148 163 158 146 142 131 122 114 128 157 230 261 244 251 255 249 279 302 303 310 313 312 308 304 299 293 291 288 293 295 300 308 306 303 299 299 309 314 322 321 322 321 322 309 304 300 297 295 290 289
138 108 106 118 132 136 142 143 135 138 144 146 152 151 139 139 134 123 123 140 136 165 232 229 248 251 250 275 312 340 322 313 312 302 303 297 295 294 290 291 300 302 301 301 302 305 303 307 319 322 322 326 327 324 318 312 302 301 298 294 289 290
145 134 133 131 131 141 148 139 133 139 142 141 147 139 139 135 129 128 139 139 140 182 222 239 237 251 256 329 14 348 321 318 318 311 304 297 295 289 291 300 300 302 307 318 321 314 302 295 290 327 331 327 325 324 322 318 314 309 306 298 294 293
129 126 128 133 140 144 154 152 136 142 142 143 138 137 133 130 129 136 136 140 147 190 219 229 235 257 344 24 13 353 322 318 310 304 294 294 292 290 293 296 303 298 316 327 327 328 326 323 321 313 327 331 328 327 325 322 318 315 309 304 299 298
145 132 129 137 137 141 142 163 135 138 138 141 143 146 140 136 136 137 137 138 165 194 213 220 172 59 43 40 29 354 326 316 316 305 304 296 291 292 296 302 296 309 325 326 331 333 333 329 320 314 321 329 325 330 330 328 325 323 318 309 297 293
119 124 130 128 138 139 148 147 152 139 143 138 147 143 138 136 137 137 140 153 178 200 191 163 122 59 40 39 24 339 291 285 295 290 293 283 291 298 293 294 300 326 327 327 330 330 324 322 319 324 312 316 323 333 334 333 331 327 321 315 306 302
141 144 136 138 153 145 147 140 139 125 133 142 144 137 134 134 134 127 131 150 169 180 103 92 79 67 48 34 360 321 282 280 268 279 279 287 301 298 295 295 317 327 325 328 323 324 327 326 334 336 326 322 333 340 336 335 333 329 322 318 314 307
151 146 142 140 151 151 144 140 132 129 131 139 137 128 127 131 135 129 138 146 145 112 84 73 43 58 64 45 2 325 316 295 277 280 287 295 299 286 293 303 322 326 326 325 321 325 323 326 341 338 337 344 344 343 339 334 335 329 327 333 327 332
146 145 139 135 141 141 138 134 129 134 143 138 133 133 135 133 131 128 128 131 121 97 88 73 59 49 45 17 20 271 262 284 295 291 287 300 303 308 316 317 329 328 325 319 325 330 319 339 343 338 345 344 346 348 346 338 340 334 342 345 347 340
134 137 130 130 137 137 138 137 137 143 142 136 136 142 132 130 126 123 120 124 120 120 92 66 52 51 40 11 346 326 307 256 265 283 300 304 325 333 338 344 337 336 333 322 339 337 344 343 340 342 347 348 349 353 354 350 345 344 351 355 352 343
137 124 126 135 140 142 141 138 144 144 141 141 144 149 139 131 122 118 123 128 132 128 106 98 69 59 47 16 344 333 323 329 315 288 305 332 339 339 343 348 347 346 348 348 343 336 348 347 346 348 350 351 354 357 358 357 351 348 356 359 355 343
159 154 147 143 145 142 140 138 149 150 146 142 146 152 142 132 129 127 136 137 144 115 112 96 89 73 48 20 345 326 335 346 331 326 320 336 351 345 343 348 350 350 352 354 355 349 350 353 353 354 355 355 357 1 2 0 353 352 356 358 357 4
156 145 141 141 141 140 142 143 147 147 143 141 140 150 145 139 125 120 128 145 136 126 109 94 86 75 71 19 320 323 340 338 336 329 319 326 332 340 346 349 352 352 354 356 357 355 1 358 357 358 359 359 0 3 3 1 354 357 355 354 4 1
139 140 141 140 143 140 142 142 144 141 142 143 144 146 141 126 119 119 133 142 144 130 115 99 88 85 69 312 288 279 300 301 283 275 294 310 320 335 339 343 348 348 350 354 356 354 1 2 0 360 1 1 3 3 0 358 350 358 5 4 358 356
135 138 141 138 136 137 140 139 139 133 137 138 138 136 124 121 123 127 130 129 123 120 115 100 91 93 74 247 260 272 290 287 274 283 283 281 302 309 312 311 323 333 342 353 352 353 2 2 1 1 1 2 3 4 1 357 1 3 351 352 346 340
135 136 138 133 135 136 133 128 130 134 136 138 147 141 130 130 131 126 127 124 118 110 109 97 100 101 126 217 258 291 310 297 298 301 297 297 294 285 292 307 318 314 319 350 355 354 2 1 0 0 1 1 2 6 6 4 2 357 348 339 338 333